This demonstration page uses our WeatherBlox Daily Observations layout. Learn more.

Left ArrowRight Arrow

Hourly Observations for November 26, 2021

Temp ( °F °C ) Dew Point ( °F °C ) Humidity (%) Winds ( mph kmh ) Pressure ( in mb ) Visibility ( mi km ) Precip ( " mm )
12:54 am 00:54 Cloudy 32 undefined 18 -7.8 56 56 S 9 15 30.27 1025 10 16 N/A
1:54 am 01:54 Cloudy 33 0.6 17 -8.3 52 52 S 12 19 30.22 1024 10 16 N/A
2:54 am 02:54 Clear 32 undefined 18 -7.8 56 56 S 12 19 30.19 1023 10 16 N/A
3:54 am 03:54 Clear 30 -1.1 18 -7.8 61 61 S 9 15 30.17 1022 10 16 N/A
4:54 am 04:54 Clear 27 -2.8 18 -7.8 69 69 S 8 13 30.14 1021 10 16 N/A
5:54 am 05:54 Clear 25 -3.9 18 -7.8 75 75 S 7 11 30.12 1020 10 16 N/A
6:54 am 06:54 Clear 26 -3.3 19 -7.2 75 75 S 6 9 30.11 1020 10 16 N/A
7:54 am 07:54 Sunny 27 -2.8 19 -7.2 72 72 S 5 7 30.11 1020 10 16 N/A
8:54 am 08:54 Sunny 34 1.1 23 -5 64 64 SSW 7 11 30.10 1019 10 16 N/A
9:54 am 09:54 Sunny 40 4.4 23 -5 51 51 SW 8 13 30.07 1018 10 16 N/A
10:54 am 10:54 Sunny 47 8.3 25 -3.9 42 42 WSW 7 11 30.05 1018 10 16 N/A
11:54 am 11:54 Sunny 52 11.1 27 -2.8 38 38 SSW 6 9 29.98 1015 10 16 N/A
12:54 pm 12:54 Sunny 57 13.9 28 -2.2 33 33 SSW 8 13 29.94 1014 10 16 N/A
1:54 pm 13:54 Sunny 61 16.1 28 -2.2 29 29 SW 10 17 29.92 1013 10 16 N/A
2:54 pm 14:54 Sunny 62 16.7 30 -1.1 30 30 S 8 13 29.89 1012 10 16 N/A
3:54 pm 15:54 Sunny 58 14.4 33 0.6 39 39 S 7 11 29.90 1013 10 16 N/A
4:54 pm 16:54 Sunny 54 12.2 30 -1.1 40 40 SSW 6 9 29.90 1012 10 16 N/A
5:54 pm 17:54 Clear 54 12.2 28 -2.2 37 37 N N/A 29.90 1012 10 16 N/A
6:54 pm 18:54 Clear 52 11.1 28 -2.2 40 40 N N/A 29.89 1012 10 16 N/A
7:54 pm 19:54 Clear 45 7.2 27 -2.8 49 49 N N/A 29.89 1012 10 16 N/A
8:54 pm 20:54 Clear 43 6.1 29 -1.7 58 58 N N/A 29.88 1012 10 16 N/A
9:54 pm 21:54 Clear 43 6.1 30 -1.1 60 60 SSW 6 9 29.86 1011 10 16 N/A
10:54 pm 22:54 Clear 47 8.3 28 -2.2 48 48 N N/A 29.86 1011 10 16 N/A
11:54 pm 23:54 Clear 43 6.1 28 -2.2 56 56 N N/A 29.85 1011 10 16 N/A

Powered by AerisWeather